AmicalSat
1 46287U 20061R 23033.15560836 .00008627 00000-0 45365-3 0 9990
2 46287 97.4201 102.4715 0002120 173.5397 186.5863 15.15900396133229
SALSAT
1 46495U 20068K 23033.52670469 .00004581 00000-0 31818-3 0 9996
2 46495 97.7558 340.3995 0015096 212.3620 147.6681 15.05973082128791
BY70-3
1 46839U 20079N 23033.51736321 .00086505 00000-0 99557-3 0 9999
2 46839 97.1700 109.5176 0004121 221.2349 266.2844 15.61704036125852
CAPE 3
1 47309U 21002A 23033.92490445 .00020193 00000-0 65577-3 0 9994
2 47309 60.6783 214.2216 0039113 110.6705 249.8586 15.31271004113652
AO-109
1 47311U 21002C 23033.88095512 .00017398 00000-0 57449-3 0 9990
2 47311 60.6812 211.8736 0036691 107.8077 252.7023 15.30917321113675
MiTEE 1
1 47314U 21002F 23033.55453666 .00054398 00000-0 11526-2 0 9991
2 47314 60.6753 196.1493 0031545 99.8740 260.5921 15.44187938113927
ExoCube 2
1 47319U 21002L 23033.23400657 .00021229 00000-0 71063-3 0 9993
2 47319 60.6798 215.9912 0037600 109.2678 251.2486 15.30325127113507
UVSQ-SAT
1 47438U 21006AB 23033.12917326 .00009722 00000-0 46112-3 0 9994
2 47438 97.4072 92.4949 0010628 189.6465 170.4567 15.19432852112105
YUSAT 1
1 47439U 21006AC 23033.12199588 .00012622 00000-0 57723-3 0 9990
2 47439 97.4083 92.8550 0010254 189.3653 170.7393 15.20629346112121
SOMP 2b
1 47445U 21006AJ 23033.12586838 .00011769 00000-0 56638-3 0 9990
2 47445 97.4046 91.9295 0010286 194.3789 165.7155 15.18882263112085
IDEASSat
1 47458U 21006AX 23033.13435006 .00009019 00000-0 43823-3 0 9992
2 47458 97.4135 92.6411 0009545 192.3294 167.7708 15.18625557112077
CubeSX-Sirius-HSE
1 47951U 21022V 23033.47916972 .00007319 00000-0 45050-3 0 9996
2 47951 97.5121 293.2141 0022111 78.2795 27.0693 15.10093695102672
CubeSX-HSE
1 47952U 21022W 23033.52349971 .00007879 00000-0 48387-3 0 9999
2 47952 97.5127 293.2942 0022017 79.2776 22.6016 15.10155279102681
KSU-Cubesat
1 47954U 21022Y 23033.28659763 .00008845 00000-0 53561-3 0 9991
2 47954 97.5129 293.2891 0021605 78.7359 281.6297 15.10636252102381
GRBAlpha
1 47959U 21022AD 23033.51259031 .00007617 00000-0 46725-3 0 9996
2 47959 97.5120 293.3462 0021968 79.3465 2.8624 15.10206095101507
Orbicraft-Zorkiy
1 47960U 21022AE 23033.78399664 .00008544 00000-0 51821-3 0 9997
2 47960 97.5151 293.8840 0021558 77.4478 8.0611 15.10592208102246
STECCO
1 47962U 21022AG 23033.81111284 .00012708 00000-0 69947-3 0 9998
2 47962 97.5116 295.3702 0016706 69.2320 3.8369 15.14057627101660
DO-111
1 47963U 21022AH 23033.66679378 .00045088 00000-0 17449-2 0 9991
2 47963 97.5158 298.6215 0016571 62.5512 297.7409 15.25923460101872
MO-110
1 47964U 21022AJ 23033.24715020 .00015688 00000-0 84861-3 0 9997
2 47964 97.5141 295.2505 0019265 68.3389 291.9892 15.14587583101602
FEES
1 48082U 21022AL 23033.25957825 .00023591 00000-0 11899-2 0 9993
2 48082 97.5141 295.6169 0015487 65.3947 294.8898 15.17028164101339
CSS
1 48274U 21035A 23033.53957896 .00012406 00000-0 14714-3 0 9992
2 48274 41.4756 256.8662 0002330 122.7310 319.3253 15.61018177100771
TUBIN
1 48900U 21059X 23033.84635505 .00006916 00000-0 35935-3 0 9995
2 48900 97.5780 167.0587 0010273 32.6840 119.9258 15.16368296 88793
IT-SPINS
1 49017U 21013G 23033.31388626 .00022746 00000-0 71408-3 0 9990
2 49017 51.5967 15.4256 0006960 173.6026 186.5045 15.32899873 88959
LEDSAT
1 49069U 21073D 23033.18388817 .00007567 00000-0 45220-3 0 9997
2 49069 97.5003 106.5228 0024688 224.3064 135.6190 15.11109747 80499
CUTE
1 49263U 21088D 23033.18192752 .00007354 00000-0 51349-3 0 9993
2 49263 97.5639 101.4942 0019092 8.1949 351.9586 15.05492485 73952
TeikyoSat 4
1 49396U 21102B 23033.15117618 .00001595 00000-0 12764-3 0 9991
2 49396 97.5405 89.2172 0013879 194.6332 165.4493 15.01499090 67506
Z-Sat
1 49399U 21102E 23033.58474963 .00002712 00000-0 20169-3 0 9990
2 49399 97.5049 90.7745 0022703 165.3063 194.8828 15.03596684 67651
KOSEN 1
1 49402U 21102H 23033.86659124 .00002851 00000-0 20424-3 0 9998
2 49402 97.4995 91.3636 0022331 152.7960 207.4442 15.04975786 67742
HO-113
1 50466U 21131B 23033.53588774 .00000403 00000-0 14605-3 0 9993
2 50466 98.5623 115.4835 0004948 171.8535 188.2734 14.38652825 57995
Tevel-3
1 50988U 22002E 23033.56960345 .00012958 00000-0 62334-3 0 9991
2 50988 97.4539 101.9198 0008456 353.0076 115.7915 15.18889391 58280
Tevel-8
1 50989U 22002F 23033.71292828 .00012923 00000-0 62265-3 0 9998
2 50989 97.4560 102.1055 0008587 351.7082 107.3620 15.18834470 58308
Tevel-5
1 50998U 22002Q 23033.57737571 .00013325 00000-0 62971-3 0 9992
2 50998 97.4532 102.1768 0009475 346.7070 122.9462 15.19490592 58307
Tevel-6
1 50999U 22002R 23033.57656409 .00013355 00000-0 63097-3 0 9996
2 50999 97.4531 102.1721 0009616 345.7062 125.9355 15.19496926 58304
Tevel-1
1 51013U 22002AF 23033.57617321 .00013012 00000-0 62646-3 0 9993
2 51013 97.4536 101.8868 0008278 352.3221 117.3691 15.18859399 58280
Grizu-263a
1 51025U 22002AT 23033.18093208 .00038084 00000-0 14689-2 0 9994
2 51025 97.4705 104.1390 0010434 343.7464 16.3438 15.26154272 58348
NO-116
1 51031U 22002AZ 23033.11374186 .00018501 00000-0 80266-3 0 9998
2 51031 97.4666 103.0835 0011301 348.0474 12.0492 15.22338853 58287
IRIS-A
1 51044U 22002BN 23033.12843368 .00007446 00000-0 38965-3 0 9991
2 51044 97.4550 100.8317 0008685 358.3159 1.8043 15.16094624 58172
Tevel-7
1 51062U 22002CG 23033.58516080 .00012978 00000-0 62526-3 0 9995
2 51062 97.4550 101.9583 0008476 351.4971 118.5126 15.18835589 58288
Tevel-4
1 51063U 22002CH 23033.58699984 .00012829 00000-0 61861-3 0 9997
2 51063 97.4553 101.9506 0008503 351.4482 114.5703 15.18809301 58285
Tevel-2
1 51069U 22002CP 23033.57128194 .00013036 00000-0 62708-3 0 9994
2 51069 97.4536 101.8996 0008360 353.0274 114.7095 15.18888173 58282
DELFI-PQ
1 51074U 22002CU 23033.17059382 .00021284 00000-0 86632-3 0 9994
2 51074 97.4793 104.7253 0011959 15.3557 344.8041 15.24462070 58357
SO-115
1 51080U 22002DA 23032.91769551 .00013544 00000-0 60184-3 0 9992
2 51080 97.4812 103.9055 0012487 19.9132 340.2588 15.21577921 58279
SO-114
1 51081U 22002DB 23032.91604052 .00013906 00000-0 61668-3 0 9997
2 51081 97.4802 103.8667 0012734 19.5353 340.6368 15.21639156 58272
OreSat0
1 52017U 22026K 23033.94426499 .00011218 00000-0 53146-3 0 9990
2 52017 97.5095 36.4692 0024737 188.4034 171.6790 15.19215383 49128
Planetum 1
1 52738U 22057G 23033.29017861 .00011987 00000-0 63507-3 0 9996
2 52738 97.5258 149.8850 0008304 95.8083 264.4096 15.15521645 38193
Foresail-1
1 52766U 22057AL 23033.93465338 .00007821 00000-0 40943-3 0 9995
2 52766 97.5356 151.2634 0013881 77.4625 68.3045 15.16014497 38316
SNUGLITE 2
1 52899U 22065F 23033.39570984 .00001223 00000-0 27135-3 0 9993
2 52899 98.0458 182.2007 0007040 279.3802 80.6602 14.58755140 31209
CTIM
1 52950U 22074G 23033.26500864 .00028044 00000-0 93284-3 0 9995
2 52950 45.0054 26.4829 0007669 69.2360 290.9280 15.30704780 32848
IO-117
1 53106U 22080B 22354.08419093 -.00000003 00000-0 00000 0 0 9990
2 53106 70.1702 21.9397 0008914 226.9685 182.2049 6.42557326 10248
AstroBioCubeSat
1 53107U 22080C 22364.14200119 -.00000003 00000-0 00000-0 0 9997
2 53107 70.1674 18.5562 0013489 216.1674 143.8074 6.42110599 10793
CELESTA
1 53111U 22080G 22310.17474584 -.00000003 00000-0 00000 0 0 9994
2 53111 70.4223 37.2580 0024959 243.8956 115.9136 6.43203861 7301
SelfieSat
1 53951U 22057BA 23033.28883565 .00013758 00000-0 71678-3 0 9991
2 53951 97.5311 150.2038 0010404 89.2235 271.0190 15.16065456 38200
FO-118
1 54684U 22167C 23033.49218694 .00009236 00000-0 57230-3 0 9999
2 54684 97.5399 172.5559 0015406 78.6143 349.4484 15.09885108 8324
HO-119
1 54816U 21035C 23033.60729753 .00136766 00000-0 93012-3 0 9992
2 54816 41.4763 253.9911 0012593 252.4098 107.5406 15.73590163 7179
